Погода в Кордове

Испания     37°52′14″N   4°46′42″W
темп.,
°C
ветер,
м/с
пор.,
м/с
влажн.,
%
обл.,
%
осадки,
мм/ч
давл.,
гПа
погр.,
м
13 апреля, вт
вт1323:00+15ю246993 0.0 1022112
02:00+12ююз228547 0.0 102327
05:00+10сз018995 0.0 102210
08:00+10в1189100 0.0 102212
11:00+17в226473 0.0 1021481
14:00+22ююз334389 0.0 10201244
17:00+23ююз5541100 0.0 10181399
20:00+19ююз2456100 0.0 101776
14 апреля, ср
ср1423:00+15ююв1162100 0.0 101817
02:00+13вюв0068100 0.0 101811
05:00+13сз0169100 0.0 101610
08:00+13ююв1173100 0.0 101611
11:00+17ю2357100 0.0 1016466
14:00+16ю6965100 0.0 1016500
17:00+15ююз2481100 0.3 1014320
20:00+14юз1288100 0.4 1014116
15 апреля, чт
чт1523:00+13всв0189100 0.0 101530
02:00+13юз1190100 0.1 101438
05:00+13зюз1193100 0.8 101364
08:00+12з0195100 3.7 101391
11:00+12в0193100 1.9 101484
14:00+13всв1292100 3.3 1014205
17:00+13св3592100 1.0 1013385
20:00+14всв2386100 1.1 1014295
16 апреля, пт
пт1623:00+11св0193100 0.0 101610
02:00+10св11935 0.0 101710
05:00+9всв11945 0.0 101610
08:00+9всв1192100 0.0 101714
11:00+13юв117812 0.0 1017282
14:00+19юз335253 0.0 10151166
17:00+20зюз3553100 0.0 1013655
20:00+18зюз356086 0.0 1013137
17 апреля, сб
сб1723:00+13зюз479223 2.3 1014162
02:00+11св238924 3.3 101686
05:00+6св411634 0.0 1017233
08:00+5св513550 0.0 1018286
11:00+11всв811391 0.0 1019755
14:00+17всв57285 0.0 10191407
17:00+19всв35235 0.0 10171972
20:00+17в223843 0.0 101813